カタログに戻る

WEILI KONGJIAN 05-08

運用中科学LEO
NORAD 69636·PAYLOAD·🇨🇳 China
この衛星名は、まだ公式ソースで確認されていません。

打ち上げ Jun 17, 2026 から Jiuquan Satellite Launch Center

Loading…

次のパス (今後24時間)

TLE

最新Source: Space-Track

元期: Sep 13, 2026, 21:05 UTC

1 69636U 26138J   26256.87908932 -.00000098  00000-0  30675-4 0  9990
2 69636  55.1410 314.0667 0006967 262.6078  97.4102 14.08363253 12544

AllMySatでWEILI KONGJIAN 05-08をリアルタイム追跡

Download on the App Store